Location: Colonia Mina de C?rbuni
(46.1667°N, 22.7167°E)
Time: 09:57:58
(UTC+00:00)

Vanguard 1 - Pass Details

Date: 20 April 2024
Orbit: 652 x 3825 km, 34.2° (Epoch: 29 May)

Event Time Altitude Azimuth Distance (km) Brightness Sun altitude
Exits shadow 00:33:33 17° 178° (S) 6,277 13.7 -25.7°
Maximum altitude 00:44:26 25° 144° (SE) 5,282 13.6 -24.6°
Drops below altitude 10° 00:57:07 10° 98° (E) 5,521 14.2 -23.2°
Sets 01:01:47 0° 86° (E) 6,077 14.8 -22.7°
